Location: Terra Rouge Observatory
(46.0000°N, 62.7500°W)
Time: 06:18:01
(UTC-03:00)

Daily predictions for brighter satellites

Satellite Brightness Start Highest point End
(mag) Time Altitude Azimuth Time Altitude Azimuth Time Altitude Azimuth
Cosmos 1655 Rocket 4.1 20:31:06 10° S 20:37:13 58° E 20:43:26 10° NNE
ALOS 4.4 20:35:05 10° SSW 20:39:10 30° W 20:43:17 10° NNW
Cosmos 1536 Rocket 4.1 20:36:49 10° N 20:40:55 39° ENE 20:45:00 10° SE
ATLAS 3B R/B 3.7 20:38:01 10° NNW 20:44:09 33° NNE 20:50:02 10° E
ERBS 2.3 20:41:17 10° SW 20:44:44 66° SE 20:48:11 10° NE
Cosmos 1812 4.3 20:41:35 10° NNW 20:45:12 38° W 20:48:49 10° SSW
Cosmos 1741 Rocket 4.5 20:42:17 10° N 20:47:20 46° ENE 20:52:22 10° SE
Cosmos 2360 4.2 20:42:09 10° SSW 20:47:51 84° ESE 20:53:35 10° NNE
Helios 1A 3.8 20:45:58 10° SE 20:49:47 34° ENE 20:53:38 10° N
ERS-1 Rocket 4.2 20:47:01 10° ESE 20:51:04 25° ENE 20:55:08 10° N
H-2A R/B 3.9 20:50:26 10° E 20:52:54 14° ENE 20:55:22 10° NNE
Meteor 1-11 Rocket 4.1 20:47:47 10° SSE 20:53:20 47° E 20:58:47 10° NNE
Envisat 3.0 20:50:55 10° SSE 20:55:59 82° ENE 21:01:06 10° NNW
Okean 2 Rocket 3.5 20:53:28 10° SSW 20:57:57 70° W 21:02:30 10° N
Cosmos 1602 3.6 20:56:05 10° S 20:59:54 70° E 21:03:44 10° NNE
USA 186 2.6 20:59:29 10° S 21:02:48 57° W 21:06:09 10° NNW
SJ-11-01 4.3 21:01:33 10° SSE 21:06:12 71° ENE 21:10:51 10° N
SL-8 R/B 4.0 21:01:42 10° WNW 21:06:28 65° N 21:11:15 10° E
ARGOS 4.2 21:04:15 11° ESE 21:08:25 28° ENE 21:12:54 10° N
Cosmos 2263 Rocket 2.4 21:03:15 10° NNW 21:08:55 61° ENE 21:14:10 12° SE
GENESIS II 4.4 21:05:43 10° NW 21:09:39 73° WSW 21:13:23 11° SSE
Abrixas rocket 2.8 21:07:39 10° W 21:10:53 57° N 21:14:08 10° ENE
Cosmos 2322 Rocket 2.3 21:06:07 10° S 21:11:39 56° ESE 21:17:13 10° NE
Meteor 1-23 Rocket 4.4 21:09:41 10° N 21:15:09 53° ENE 21:20:24 11° SSE
Cosmos 1844 Rocket 4.3 21:12:06 10° N 21:16:19 21° NE 21:20:20 11° E
ATLAS 2AS CENTAUR R/B 3.3 21:13:30 10° S 21:20:37 43° ESE 21:28:09 10° NE
Cosmos 839 Rocket 4.1 21:15:03 10° SW 21:21:16 86° NW 21:27:40 10° NE
SL-16 R/B 2.2 21:16:41 10° SSW 21:22:18 67° ESE 21:27:56 10° NNE
Cosmos 1939 Rocket 3.2 21:21:25 10° S 21:25:23 67° WSW 21:29:20 10° NNW
NOSS 3-1 (A) 4.4 21:21:50 10° WSW 21:27:36 53° NW 21:34:11 10° NE
Cosmos 1452 Rocket 4.2 21:25:05 10° SW 21:30:17 58° WNW 21:35:31 10° NNE
Cosmos 1850 Rocket 4.2 21:24:58 10° NNW 21:30:20 79° WSW 21:35:24 11° SSE
NOSS 2-3 (E) 3.9 21:26:31 10° SSW 21:31:07 56° ESE 21:36:31 10° NE
Cosmos 1536 2.8 21:27:59 10° S 21:32:03 76° E 21:36:08 10° NNE
Lacrosse 5 rocket 3.3 21:29:48 10° W 21:32:28 19° SW 21:35:13 10° S
Cosmos 1420 Rocket 4.2 21:28:20 10° SSW 21:33:30 75° WNW 21:38:44 10° NNE
S3M 4.5 21:27:28 10° NNW 21:33:39 63° W 21:39:52 10° S
Cosmos 1607 4.0 21:31:12 10° NW 21:37:41 87° NE 21:42:31 19° SE
YAOGAN 6 2.9 21:34:18 10° S 21:37:45 63° W 21:41:16 10° NNW
COSMOS 2428 4.1 21:40:22 18° ESE 21:40:35 18° E 21:44:21 10° ENE
Helios 1B rocket 2.3 21:37:44 10° NNE 21:41:52 73° ESE 21:45:57 10° S
Cosmos 2315 Rocket 4.0 21:35:52 10° N 21:42:04 64° E 21:46:59 17° SSE
MetOp-B 4.3 21:38:32 19° SE 21:42:19 59° ENE 21:47:36 10° N
Okean 1 Rocket 3.0 21:38:49 10° S 21:43:07 69° E 21:47:30 10° NNE
Cosmos 2266 Rocket 3.9 21:38:46 10° S 21:44:49 86° E 21:50:53 10° N
Cosmos 2360 Rocket 2.5 21:40:29 10° S 21:45:45 43° ESE 21:51:03 10° NE
Resurs 01 Rocket 4.1 21:42:54 10° SW 21:46:15 21° W 21:49:39 10° NW
Okean 1-7 Rocket 3.7 21:42:03 10° N 21:46:31 61° ENE 21:49:06 24° SSE
Cosmos 1980 Rocket 4.1 21:42:07 10° WSW 21:47:09 33° NW 21:52:11 10° NNE
Cosmos 1300 Rocket 3.8 21:43:50 10° SSW 21:48:07 71° W 21:52:27 10° N
Cosmos 1500 4.1 21:49:22 29° ESE 21:49:52 30° E 21:53:18 10° NNE
Meteor 1-5 Rocket 4.0 21:45:29 10° S 21:50:48 81° E 21:56:08 10° NNE
SeaSat 1 3.2 21:47:19 10° NNE 21:52:10 57° WNW 21:56:59 10° SW
Cosmos 1025 Rocket 2.9 21:49:24 10° N 21:53:41 77° E 21:56:01 26° SSE
SPOT 1/Viking Rocket 4.2 21:51:17 25° ESE 21:53:44 40° ENE 21:58:36 10° N
Tiangong 1 2.1 21:53:12 10° WSW 21:55:23 27° SSW 21:55:23 27° SSW
Cosmos 220 Rocket 4.0 21:52:29 10° NNW 21:56:48 77° WSW 21:59:10 26° SSE
Meteor 2-4 Rocket 4.4 21:52:09 10° NNW 21:57:30 52° W 22:02:59 10° S
SPOT 5 3.1 21:56:07 29° SE 21:58:24 53° ENE 22:02:57 10° N
NOAA 11 4.3 21:59:23 17° S 22:03:43 74° WSW 22:09:14 10° NNW
Lacrosse 5 1.9 21:59:20 10° SSW 22:04:16 57° SE 22:09:15 10° ENE
NOSS 2-3 (C) 4.0 21:59:58 10° SW 22:04:44 83° NW 22:10:27 10° NE
EXPRESS MD2 3.6 22:06:13 10° WSW 22:09:19 73° NNW 22:15:24 10° ENE
USA 245 3.7 22:10:25 31° SSE 22:12:55 81° ENE 22:17:16 10° N
H-2A R/B 4.0 22:12:56 16° ENE 22:13:30 16° ENE 22:16:12 10° NNE
Atlas Centaur 2 4.1 22:08:31 10° WSW 22:13:43 20° SSW 22:15:23 18° S
NOSS 3-2 (A) 4.4 22:07:15 10° NW 22:14:23 53° NE 22:18:56 26° ESE
USA 238 DEB 3.8 22:08:15 10° NW 22:15:23 80° NE 22:19:04 32° SE
USA 238 3.8 22:08:21 10° NW 22:15:29 79° NE 22:19:10 32° SE
Okean 2 3.6 22:14:32 10° NNW 22:18:37 65° W 22:20:18 33° SSW
Cosmos 1066 Rocket 4.1 22:17:50 10° N 22:23:13 67° ENE 22:25:08 40° SE
Meteor 1-29 4.3 22:21:18 10° N 22:24:31 38° WNW 22:27:14 13° SW
ERS-1 Rocket 3.8 22:26:23 20° SSW 22:29:37 46° W 22:34:27 10° NNW
H-2A R/B 1.9 22:29:52 42° SSE 22:31:38 89° ENE 22:36:39 10° NNW
Cosmos 1626 Rocket 4.5 22:29:05 10° N 22:32:50 32° ENE 22:32:50 32° ENE
Cosmos 1892 Rocket 3.5 22:29:40 10° N 22:34:09 89° W 22:35:02 57° S
Landsat 7 3.9 22:34:22 52° ESE 22:35:15 64° ENE 22:39:59 10° N
ATLAS 3B R/B 2.7 22:28:41 10° NW 22:35:26 72° WSW 22:38:06 38° SSE
Cosmos 1666 4.4 22:36:53 23° NE 22:36:53 23° NE 22:38:51 10° NNE
BREEZE M DEB (TANK) 3.6 22:30:59 10° SW 22:34:56 30° SSW 22:34:56 30° SSW
BREEZE M DEB (TANK) 3.2 22:39:16 10° WNW 22:45:13 55° N 22:45:39 50° NE
Meteor 1-12 Rocket 4.1 22:44:44 43° S 22:46:41 80° E 22:52:21 10° NNE
Cosmos 1743 3.6 22:47:55 38° NE 22:47:55 38° NE 22:50:32 10° NNE
SL-08 RB Rocket 4.3 22:45:27 37° SSW 22:46:52 52° W 22:51:20 10° NNW
Cosmos 1975 2.8 22:47:28 76° WSW 22:47:40 79° W 22:51:41 10° N
Abrixas rocket 3.2 22:44:32 10° WNW 22:47:01 46° NW 22:47:01 46° NW
ARGOS 3.9 22:45:46 26° SSW 22:48:25 46° W 22:53:35 10° NNW
SL-8 R/B 3.6 22:44:22 10° WNW 22:49:09 71° SSW 22:49:26 69° S
GP-B 3.7 22:45:04 10° NNE 22:48:47 42° ENE 22:48:47 42° ENE
BREEZE-M (TANK) 3.3 22:36:41 10° WNW 22:49:36 90° SSW 22:50:39 56° ESE
Terra 1.8 22:50:12 61° E 22:50:35 64° ENE 22:55:19 10° N
Cosmos 1544 Rocket 3.5 22:51:12 71° SSW 22:51:40 87° W 22:56:10 10° N
Cosmos 2278 Rocket 3.0 22:46:53 10° NNW 22:52:12 39° NE 22:53:25 35° E
NOSS 3-2 (C) 4.1 22:44:53 10° NW 22:52:14 65° NE 22:55:31 38° ESE
Cosmos 2263 Rocket 4.1 22:48:03 10° NW 22:52:22 23° W 22:55:53 13° SW
Cosmos 1486 Rocket 4.1 22:50:10 10° NNW 22:55:24 68° WSW 22:56:28 53° SSW
Cosmos 405 3.7 22:55:35 53° WNW 22:55:35 53° WNW 22:58:58 10° N
Cosmos 2322 Rocket 4.2 22:51:11 10° WSW 22:56:03 28° NW 23:00:56 10° N
Cosmos 2237 4.1 22:52:58 25° SSW 22:56:23 86° WNW 23:02:08 10° NNE
Cosmos 1302 Rocket 3.9 22:55:20 44° SSW 22:57:03 89° WNW 23:02:22 10° NNE
Cosmos 1844 Rocket 2.6 22:55:13 10° NNW 23:00:56 81° WSW 23:02:00 60° S
Nadezhda 1 Rocket 3.9 22:55:35 10° N 23:01:55 86° E 23:03:37 52° SSE
Cosmos 1455 Rocket 3.1 23:04:08 71° WSW 23:04:23 74° W 23:08:52 10° N
SL-16 R/B 4.5 23:02:22 10° W 23:06:55 24° NW 23:11:30 10° N
ATLAS CENTAUR R/B 3.8 23:07:40 10° N 23:08:59 11° NNE 23:09:39 11° NE
ATLAS 2AS CENTAUR R/B 3.6 23:03:50 10° WSW 23:11:32 58° NW 23:19:35 10° NE
Cosmos 968 Rocket 4.3 23:07:38 10° N 23:12:21 35° ENE 23:12:31 35° ENE
Meteor 2-9 Rocket 4.5 23:14:06 52° E 23:14:06 52° E 23:19:26 10° NNE
Cosmos 2181 Rocket 4.3 23:08:21 10° N 23:14:36 49° ENE 23:15:22 47° E
Cosmos 2322 4.5 23:10:06 10° SW 23:15:35 50° WNW 23:21:08 10° NNE
Cosmos 2219 Rocket 2.2 23:16:11 60° E 23:16:11 60° E 23:21:21 10° NNE
DMSP B5D2-2 4.1 23:10:33 10° N 23:15:49 75° WNW 23:16:55 55° SW
Spot 4 4.1 23:16:24 55° NE 23:16:24 55° NE 23:20:47 10° N
COSMOS 2455 4.3 23:12:26 10° NNW 23:17:33 28° NE 23:19:39 23° ENE
IGS 5A 3.9 23:18:37 61° NW 23:18:37 61° NW 23:22:14 10° NNW
CZ-2C R/B 4.4 23:16:28 10° NE 23:19:02 19° ENE 23:19:02 19° ENE
Cosmos 1709 Rocket 4.0 23:20:40 57° ESE 23:20:56 58° E 23:27:02 10° NNE
NOSS 3-4 (A) 3.8 23:22:38 48° E 23:22:38 48° E 23:27:55 10° NE
NOSS 3-4 (C) 3.8 23:22:48 47° E 23:22:48 47° E 23:28:02 10° NE
SL-16 R/B 4.3 23:25:50 13° ENE 23:25:50 13° ENE 23:26:48 10° ENE
COSMOS 2428 2.8 23:22:18 44° SW 23:24:12 74° WNW 23:29:57 10° NNE
CENTAUR R/B 3.6 23:19:24 10° NW 23:26:50 50° NE 23:30:20 32° E
Cosmos 2360 Rocket 3.7 23:24:46 10° WSW 23:29:51 34° NW 23:34:58 10° NNE
Cosmos 1354 Rocket 4.2 23:26:04 10° NNW 23:31:21 64° WSW 23:31:27 64° WSW
Cosmos 1844 3.9 23:27:09 10° NNW 23:32:44 60° WSW 23:33:04 59° SW
CZ-2C R/B 3.9 23:35:25 34° NE 23:35:25 34° NE 23:39:10 10° N
Cosmos 1818 3.5 23:35:24 77° W 23:35:43 81° NW 23:41:13 10° NE
Cosmos 1437 Rocket 4.0 23:36:49 40° NW 23:36:49 40° NW 23:39:56 10° N
Cosmos 2333 Rocket 2.2 23:38:20 67° ENE 23:38:20 67° ENE 23:43:23 10° NNE
CZ-4 R/B 4.3 23:35:17 10° NNE 23:38:58 53° NE 23:38:58 53° NE
CZ-4B R/B 4.3 23:37:53 10° NNE 23:41:04 39° NE 23:41:04 39° NE
USA 81 4.1 23:40:09 10° N 23:45:08 78° NNW 23:45:08 78° NNW
USA 215 4.2 23:41:08 19° E 23:45:28 43° NNE 23:51:35 10° NW
Timation 1 Rocket 4.2 23:39:58 10° NNW 23:46:00 83° WSW 23:46:06 82° SW
Lacrosse 5 3.1 23:42:40 10° W 23:47:27 40° NNW 23:52:14 10° NE
H-2A R/B 3.0 23:50:04 45° NW 23:50:04 45° NW 23:53:22 10° NNW
